CYZ6057 ZHHH-ZUUU

Flight info

Callsign CYZ6057
Flight time N/A
Altitude 32100
Route GUGAM1E GUGAM W156 UPGUR W80 URGEG W231 EKOKA EKOKA6K
Aircraft B77L/H-SDE1E2E3FGHIJ2J3J4J5M1RWXY/LB1D1

Departure

Time 2026-04-29 13:26
Airport Wuhan Tianhe International Airport (ZHHH)

Arrival

Time N/A
Airport Chengdu Shuangliu International Airport (ZUUU)
Time Latitude Longitude Altitude Speed Heading
2026-04-29 13:00 30.78584 114.21642 130 ft 0 kts 131°
2026-04-29 13:10 30.78591 114.21633 130 ft 2 kts 131°
2026-04-29 13:10 30.78602 114.21620 130 ft 2 kts 144°
2026-04-29 13:11 30.78616 114.21613 130 ft 2 kts 165°
2026-04-29 13:11 30.78631 114.21610 130 ft 2 kts 184°
2026-04-29 13:11 30.78646 114.21613 130 ft 2 kts 202°
2026-04-29 13:11 30.78658 114.21622 130 ft 1 kts 219°
2026-04-29 13:12 30.78661 114.21624 130 ft 0 kts 222°
2026-04-29 13:14 30.78657 114.21621 130 ft 2 kts 221°
2026-04-29 13:14 30.78645 114.21608 130 ft 4 kts 220°
2026-04-29 13:14 30.78622 114.21584 130 ft 6 kts 228°
2026-04-29 13:15 30.78588 114.21532 130 ft 9 kts 233°
2026-04-29 13:15 30.78565 114.21499 130 ft 10 kts 226°
2026-04-29 13:15 30.78507 114.21435 130 ft 12 kts 221°
2026-04-29 13:15 30.78441 114.21358 130 ft 13 kts 247°
2026-04-29 13:16 30.78473 114.21249 130 ft 14 kts 292°
2026-04-29 13:16 30.78431 114.21144 130 ft 15 kts 219°
2026-04-29 13:16 30.78370 114.21083 130 ft 16 kts 220°
2026-04-29 13:16 30.78278 114.20990 130 ft 17 kts 221°
2026-04-29 13:17 30.78186 114.20896 130 ft 17 kts 220°
2026-04-29 13:17 30.78099 114.20808 130 ft 16 kts 221°
2026-04-29 13:17 30.78018 114.20727 130 ft 15 kts 221°
2026-04-29 13:17 30.77940 114.20647 130 ft 14 kts 220°
2026-04-29 13:18 30.77865 114.20573 130 ft 13 kts 221°
2026-04-29 13:18 30.77799 114.20504 130 ft 13 kts 221°
2026-04-29 13:18 30.77731 114.20434 130 ft 12 kts 220°
2026-04-29 13:18 30.77665 114.20367 130 ft 12 kts 221°
2026-04-29 13:19 30.77601 114.20303 130 ft 12 kts 221°
2026-04-29 13:19 30.77538 114.20239 130 ft 11 kts 221°
2026-04-29 13:19 30.77478 114.20177 130 ft 11 kts 221°
2026-04-29 13:19 30.77418 114.20116 130 ft 11 kts 221°
2026-04-29 13:20 30.77360 114.20056 130 ft 11 kts 221°
2026-04-29 13:20 30.77303 114.19999 130 ft 10 kts 220°
2026-04-29 13:20 30.77246 114.19943 130 ft 10 kts 220°
2026-04-29 13:20 30.77190 114.19886 130 ft 10 kts 221°
2026-04-29 13:21 30.77153 114.19851 130 ft 5 kts 218°
2026-04-29 13:21 30.77128 114.19820 130 ft 3 kts 254°
2026-04-29 13:21 30.77132 114.19788 130 ft 3 kts 313°
2026-04-29 13:21 30.77150 114.19768 130 ft 3 kts 309°
2026-04-29 13:22 30.77158 114.19757 130 ft 0 kts 309°
2026-04-29 13:24 30.77165 114.19747 130 ft 4 kts 310°
2026-04-29 13:24 30.77200 114.19700 130 ft 10 kts 314°
2026-04-29 13:24 30.77269 114.19701 130 ft 11 kts 32°
2026-04-29 13:24 30.77299 114.19727 130 ft 0 kts 39°
2026-04-29 13:25 30.77326 114.19753 130 ft 23 kts 40°
2026-04-29 13:25 30.77715 114.20150 130 ft 127 kts 41°
2026-04-29 13:26 30.78568 114.21022 391 ft 200 kts 41°
2026-04-29 13:26 30.79669 114.22107 1640 ft 207 kts 39°
2026-04-29 13:26 30.80756 114.23013 2980 ft 196 kts 28°
2026-04-29 13:26 30.82056 114.23621 3652 ft 218 kts 21°
2026-04-29 13:27 30.83516 114.24326 4297 ft 235 kts 26°
2026-04-29 13:27 30.85031 114.25030 4872 ft 241 kts 14°
2026-04-29 13:27 30.86712 114.25069 5446 ft 245 kts 351°
2026-04-29 13:27 30.88322 114.24286 6019 ft 249 kts 328°
2026-04-29 13:28 30.89603 114.22920 6594 ft 262 kts 317°
2026-04-29 13:28 30.90871 114.21323 7208 ft 271 kts 315°
2026-04-29 13:28 30.92128 114.19629 7799 ft 286 kts 309°
2026-04-29 13:28 30.93207 114.17558 8431 ft 313 kts 298°
2026-04-29 13:29 30.93930 114.15067 9040 ft 331 kts 285°
2026-04-29 13:29 30.94135 114.12329 9628 ft 340 kts 271°
2026-04-29 13:29 30.93744 114.09559 10210 ft 347 kts 257°
2026-04-29 13:29 30.92733 114.06922 10771 ft 355 kts 242°
2026-04-29 13:30 30.91144 114.04647 11313 ft 360 kts 226°
2026-04-29 13:30 30.89187 114.02782 11885 ft 368 kts 221°
2026-04-29 13:30 30.87171 114.00899 12473 ft 370 kts 223°
2026-04-29 13:30 30.85152 113.98947 13045 ft 371 kts 224°
2026-04-29 13:31 30.83178 113.97002 13590 ft 374 kts 224°
2026-04-29 13:31 30.81188 113.95015 14172 ft 374 kts 225°
2026-04-29 13:31 30.79186 113.93002 14734 ft 374 kts 225°
2026-04-29 13:31 30.77189 113.90987 15307 ft 375 kts 225°
2026-04-29 13:32 30.75210 113.88983 15857 ft 375 kts 226°
2026-04-29 13:32 30.73229 113.86977 16421 ft 376 kts 226°
2026-04-29 13:32 30.71247 113.84966 16980 ft 376 kts 226°
2026-04-29 13:32 30.69254 113.82890 17551 ft 376 kts 230°
2026-04-29 13:33 30.67509 113.80629 18103 ft 376 kts 234°
2026-04-29 13:33 30.65808 113.78308 18651 ft 375 kts 234°
2026-04-29 13:33 30.64095 113.75970 19206 ft 377 kts 234°
2026-04-29 13:33 30.62394 113.73650 19762 ft 377 kts 234°
2026-04-29 13:34 30.60687 113.71326 20304 ft 378 kts 234°
2026-04-29 13:34 30.58945 113.68954 20861 ft 379 kts 234°
2026-04-29 13:34 30.57220 113.66608 21410 ft 380 kts 235°
2026-04-29 13:34 30.55474 113.64236 21960 ft 381 kts 235°
2026-04-29 13:35 30.53752 113.61897 22507 ft 382 kts 234°
2026-04-29 13:35 30.51989 113.59506 23056 ft 385 kts 235°
2026-04-29 13:35 30.50242 113.57136 23605 ft 387 kts 234°
2026-04-29 13:35 30.48490 113.54761 24166 ft 386 kts 235°
2026-04-29 13:36 30.46698 113.52335 24755 ft 388 kts 235°
2026-04-29 13:36 30.44928 113.49940 25330 ft 390 kts 235°
2026-04-29 13:36 30.43138 113.47518 25914 ft 392 kts 235°
2026-04-29 13:36 30.41349 113.45100 26494 ft 394 kts 235°
2026-04-29 13:37 30.39546 113.42663 27082 ft 396 kts 235°
2026-04-29 13:37 30.37732 113.40215 27664 ft 398 kts 235°
2026-04-29 13:37 30.35929 113.37781 28242 ft 399 kts 235°
2026-04-29 13:37 30.34105 113.35323 28833 ft 401 kts 235°
2026-04-29 13:38 30.32513 113.33176 29350 ft 403 kts 234°
2026-04-29 13:38 30.30539 113.30518 30010 ft 407 kts 234°
2026-04-29 13:38 30.28683 113.28018 30626 ft 411 kts 234°
2026-04-29 13:38 30.26797 113.25475 31250 ft 413 kts 235°
2026-04-29 13:39 30.25112 113.22763 31874 ft 413 kts 242°
2026-04-29 13:39 30.23764 113.19786 32264 ft 418 kts 249°
2026-04-29 13:39 30.22214 113.13302 32284 ft 414 kts 263°
2026-04-29 13:40 30.22272 113.06662 32288 ft 413 kts 273°
2026-04-29 13:40 30.22780 113.00056 32279 ft 414 kts 273°
2026-04-29 13:41 30.23253 112.93382 32277 ft 414 kts 273°
2026-04-29 13:41 30.23698 112.86745 32283 ft 413 kts 273°
2026-04-29 13:42 30.24130 112.80125 32285 ft 414 kts 272°
2026-04-29 13:42 30.24552 112.73518 32287 ft 414 kts 273°
2026-04-29 13:43 30.24974 112.66827 32284 ft 414 kts 273°
2026-04-29 13:43 30.25388 112.60207 32282 ft 414 kts 273°
2026-04-29 13:44 30.25799 112.53562 32278 ft 414 kts 273°
2026-04-29 13:44 30.26228 112.46860 32277 ft 415 kts 275°
2026-04-29 13:45 30.27640 112.40401 32286 ft 418 kts 286°
2026-04-29 13:45 30.29546 112.34081 32286 ft 418 kts 285°
2026-04-29 13:46 30.31470 112.27681 32291 ft 419 kts 286°
2026-04-29 13:46 30.33378 112.21307 32282 ft 417 kts 285°
2026-04-29 13:47 30.35282 112.14928 32284 ft 418 kts 285°
2026-04-29 13:47 30.37180 112.08556 32280 ft 417 kts 286°
2026-04-29 13:48 30.39077 112.02170 32281 ft 417 kts 286°
2026-04-29 13:48 30.40951 111.95849 32275 ft 416 kts 285°
2026-04-29 13:49 30.42840 111.89462 32279 ft 416 kts 286°
2026-04-29 13:49 30.44712 111.83120 32284 ft 416 kts 286°
2026-04-29 13:50 30.46601 111.76707 32284 ft 416 kts 286°
2026-04-29 13:50 30.48014 111.70213 32281 ft 415 kts 275°
2026-04-29 13:51 30.47964 111.63523 32290 ft 413 kts 267°
2026-04-29 13:51 30.47617 111.56923 32283 ft 413 kts 267°
2026-04-29 13:52 30.47256 111.50229 32291 ft 413 kts 267°
2026-04-29 13:52 30.46508 111.43643 32291 ft 414 kts 263°
2026-04-29 13:53 30.45592 111.36970 32289 ft 415 kts 262°
2026-04-29 13:53 30.44683 111.30395 32309 ft 415 kts 262°
2026-04-29 13:54 30.43778 111.23886 32312 ft 415 kts 262°
2026-04-29 13:54 30.42857 111.17284 32307 ft 414 kts 262°
2026-04-29 13:55 30.41939 111.10725 32309 ft 415 kts 262°
2026-04-29 13:55 30.41027 111.04234 32307 ft 415 kts 262°
2026-04-29 13:56 30.40089 110.97588 32312 ft 414 kts 262°
2026-04-29 13:56 30.39160 110.91022 32319 ft 413 kts 262°
2026-04-29 13:57 30.38228 110.84460 32315 ft 414 kts 262°
2026-04-29 13:57 30.37443 110.78953 32332 ft 414 kts 262°
2026-04-29 13:58 30.36347 110.71296 32328 ft 414 kts 262°
2026-04-29 13:58 30.35403 110.64722 32328 ft 416 kts 262°
2026-04-29 13:59 30.34447 110.58089 32314 ft 415 kts 262°
2026-04-29 13:59 30.33509 110.51611 32316 ft 417 kts 263°
2026-04-29 14:00 30.32546 110.44981 32312 ft 417 kts 262°
2026-04-29 14:00 30.31591 110.38424 32309 ft 418 kts 262°
2026-04-29 14:01 30.30628 110.31841 32326 ft 418 kts 262°
2026-04-29 14:01 30.29645 110.25150 32323 ft 419 kts 262°
2026-04-29 14:02 30.28668 110.18522 32330 ft 420 kts 262°
2026-04-29 14:02 30.27692 110.11922 32329 ft 419 kts 262°
2026-04-29 14:03 30.26715 110.05341 32333 ft 420 kts 262°
2026-04-29 14:03 30.25726 109.98698 32333 ft 422 kts 262°
2026-04-29 14:04 30.24726 109.92013 32326 ft 421 kts 262°
2026-04-29 14:04 30.23728 109.85356 32337 ft 421 kts 262°
2026-04-29 14:05 30.22724 109.78695 32332 ft 422 kts 262°
2026-04-29 14:05 30.21728 109.72111 32328 ft 422 kts 262°
2026-04-29 14:06 30.20717 109.65458 32333 ft 421 kts 262°
2026-04-29 14:06 30.19571 109.58978 32320 ft 423 kts 257°
2026-04-29 14:07 30.17864 109.52494 32314 ft 425 kts 256°
2026-04-29 14:07 30.16130 109.45967 32309 ft 425 kts 256°
2026-04-29 14:08 30.14408 109.39492 32321 ft 424 kts 256°
2026-04-29 14:08 30.12665 109.32947 32319 ft 425 kts 256°
2026-04-29 14:09 30.10930 109.26446 32326 ft 425 kts 256°
2026-04-29 14:09 30.09190 109.19940 32330 ft 424 kts 256°
2026-04-29 14:10 30.07469 109.13547 32321 ft 425 kts 256°
2026-04-29 14:10 30.05700 109.06986 32318 ft 425 kts 256°
2026-04-29 14:11 30.03946 109.00496 32324 ft 425 kts 256°
2026-04-29 14:11 30.02194 108.93981 32326 ft 425 kts 257°
2026-04-29 14:12 30.00504 108.87538 32320 ft 423 kts 256°
2026-04-29 14:12 29.98797 108.81049 32314 ft 422 kts 257°
2026-04-29 14:13 29.97091 108.74585 32300 ft 423 kts 257°
2026-04-29 14:13 29.95397 108.68178 32307 ft 421 kts 257°
2026-04-29 14:14 29.93679 108.61687 32302 ft 421 kts 257°
2026-04-29 14:14 29.91959 108.55206 32281 ft 421 kts 257°
2026-04-29 14:15 29.90245 108.48764 32285 ft 420 kts 258°
2026-04-29 14:15 29.88564 108.42458 32287 ft 422 kts 258°
2026-04-29 14:16 29.86822 108.35938 32276 ft 421 kts 258°
2026-04-29 14:16 29.85086 108.29451 32305 ft 421 kts 257°
2026-04-29 14:17 29.83361 108.23023 32302 ft 420 kts 258°
2026-04-29 14:17 29.81642 108.16627 32307 ft 419 kts 258°
2026-04-29 14:18 29.79904 108.10178 32282 ft 419 kts 258°
2026-04-29 14:18 29.78162 108.03722 32279 ft 421 kts 258°
2026-04-29 14:19 29.76421 107.97292 32272 ft 419 kts 258°
2026-04-29 14:19 29.74690 107.90911 32274 ft 420 kts 258°
2026-04-29 14:20 29.72928 107.84435 32279 ft 419 kts 258°
2026-04-29 14:20 29.71179 107.78024 32286 ft 419 kts 258°
2026-04-29 14:21 29.69419 107.71586 32290 ft 420 kts 259°
2026-04-29 14:21 29.67660 107.65163 32281 ft 418 kts 258°
2026-04-29 14:22 29.66232 107.58693 32278 ft 413 kts 268°
2026-04-29 14:22 29.66369 107.52134 32272 ft 408 kts 282°
2026-04-29 14:23 29.67872 107.45821 32259 ft 405 kts 288°
2026-04-29 14:23 29.69519 107.39624 32258 ft 403 kts 288°
2026-04-29 14:24 29.70952 107.33509 32262 ft 404 kts 284°
2026-04-29 14:24 29.72196 107.27230 32262 ft 403 kts 284°
2026-04-29 14:25 29.73966 107.21132 32261 ft 404 kts 296°
2026-04-29 14:25 29.77158 107.15805 32259 ft 404 kts 309°
2026-04-29 14:26 29.81311 107.11362 32251 ft 408 kts 313°
2026-04-29 14:26 29.85536 107.06976 32254 ft 408 kts 314°
2026-04-29 14:27 29.89772 107.02560 32251 ft 407 kts 313°
2026-04-29 14:28 29.96095 106.95943 32245 ft 407 kts 314°
2026-04-29 14:28 30.00292 106.91543 32248 ft 407 kts 313°
2026-04-29 14:29 30.04402 106.87225 32250 ft 407 kts 314°
2026-04-29 14:29 30.08610 106.82799 32235 ft 409 kts 314°
2026-04-29 14:30 30.12717 106.78476 32254 ft 408 kts 314°
2026-04-29 14:30 30.16951 106.74010 32258 ft 410 kts 313°
2026-04-29 14:31 30.21169 106.69556 32254 ft 410 kts 313°
2026-04-29 14:31 30.25407 106.65075 32238 ft 412 kts 314°
2026-04-29 14:32 30.29626 106.60606 32243 ft 426 kts 314°
2026-04-29 14:32 30.31862 106.58235 32254 ft 439 kts 314°
2026-04-29 14:32 30.34100 106.55863 32244 ft 442 kts 314°
2026-04-29 14:33 30.38611 106.51078 32237 ft 443 kts 314°
2026-04-29 14:33 30.43172 106.46234 32236 ft 442 kts 314°
2026-04-29 14:34 30.47677 106.41441 32233 ft 442 kts 314°
2026-04-29 14:34 30.52236 106.36584 32228 ft 441 kts 314°
2026-04-29 14:35 30.55900 106.32677 32248 ft 441 kts 314°
2026-04-29 14:35 30.61540 106.25399 32249 ft 439 kts 302°
2026-04-29 14:36 30.62950 106.22865 32252 ft 439 kts 302°
2026-04-29 14:36 30.66281 106.16821 32242 ft 437 kts 301°
2026-04-29 14:37 30.69436 106.11086 32250 ft 437 kts 301°
2026-04-29 14:37 30.72153 106.04967 32246 ft 438 kts 290°
2026-04-29 14:38 30.73188 105.98508 32233 ft 441 kts 275°
2026-04-29 14:38 30.72592 105.91322 32239 ft 448 kts 266°
2026-04-29 14:39 30.71603 105.84284 32239 ft 449 kts 266°
2026-04-29 14:39 30.70575 105.77036 32240 ft 449 kts 266°
2026-04-29 14:40 30.69550 105.69840 32223 ft 450 kts 266°
2026-04-29 14:40 30.68515 105.62603 32228 ft 450 kts 266°
2026-04-29 14:41 30.67478 105.55383 32235 ft 445 kts 266°
2026-04-29 14:41 30.66458 105.48343 32203 ft 427 kts 266°
2026-04-29 14:42 30.65482 105.41612 32144 ft 412 kts 266°
2026-04-29 14:42 30.64545 105.35164 32106 ft 397 kts 267°
2026-04-29 14:43 30.63648 105.29005 31901 ft 389 kts 266°
2026-04-29 14:43 30.63084 105.25900 31579 ft 394 kts 261°
2026-04-29 14:43 30.62145 105.22880 31303 ft 401 kts 253°
2026-04-29 14:43 30.60782 105.19935 31078 ft 409 kts 245°
2026-04-29 14:44 30.59086 105.17292 30912 ft 415 kts 238°
2026-04-29 14:44 30.57191 105.14748 30663 ft 416 kts 238°
2026-04-29 14:44 30.55270 105.12195 30418 ft 416 kts 238°
2026-04-29 14:44 30.53351 105.09641 30156 ft 416 kts 237°
2026-04-29 14:45 30.51456 105.07118 29919 ft 415 kts 238°
2026-04-29 14:45 30.49558 105.04589 29731 ft 414 kts 237°
2026-04-29 14:45 30.47645 105.02042 29539 ft 413 kts 237°
2026-04-29 14:45 30.45762 104.99532 29306 ft 413 kts 237°
2026-04-29 14:46 30.43853 104.96989 29105 ft 413 kts 237°
2026-04-29 14:46 30.41970 104.94482 28926 ft 412 kts 237°
2026-04-29 14:46 30.40154 104.91872 28761 ft 404 kts 244°
2026-04-29 14:46 30.38798 104.89107 28558 ft 395 kts 253°
2026-04-29 14:47 30.37834 104.86148 28323 ft 390 kts 258°
2026-04-29 14:47 30.36986 104.83151 28194 ft 388 kts 258°
2026-04-29 14:47 30.36148 104.80181 28084 ft 386 kts 258°
2026-04-29 14:47 30.35317 104.77236 27896 ft 386 kts 258°
2026-04-29 14:48 30.34473 104.74252 27713 ft 385 kts 258°
2026-04-29 14:48 30.33646 104.71333 27580 ft 384 kts 258°
2026-04-29 14:48 30.32815 104.68402 27468 ft 382 kts 258°
2026-04-29 14:48 30.31982 104.65467 27289 ft 383 kts 258°
2026-04-29 14:49 30.31138 104.62495 27121 ft 382 kts 258°
2026-04-29 14:49 30.30300 104.59547 26977 ft 382 kts 258°
2026-04-29 14:49 30.29475 104.56648 26807 ft 382 kts 258°
2026-04-29 14:49 30.28705 104.53744 26635 ft 378 kts 263°
2026-04-29 14:50 30.28371 104.50741 26424 ft 372 kts 274°
2026-04-29 14:50 30.28559 104.47748 26216 ft 369 kts 283°
2026-04-29 14:50 30.29196 104.44888 26067 ft 366 kts 289°
2026-04-29 14:50 30.29930 104.42109 26040 ft 363 kts 289°
2026-04-29 14:51 30.30681 104.39287 25970 ft 360 kts 289°
2026-04-29 14:51 30.31419 104.36516 25819 ft 360 kts 289°
2026-04-29 14:51 30.32157 104.33742 25760 ft 358 kts 288°
2026-04-29 14:51 30.32889 104.30989 25763 ft 355 kts 288°
2026-04-29 14:52 30.33625 104.28219 25769 ft 351 kts 289°
2026-04-29 14:52 30.34344 104.25507 25777 ft 348 kts 289°
2026-04-29 14:52 30.35045 104.22867 25762 ft 346 kts 289°
2026-04-29 14:52 30.35760 104.20168 25390 ft 345 kts 289°
2026-04-29 14:53 30.36459 104.17529 24999 ft 340 kts 289°
2026-04-29 14:53 30.37148 104.14922 24599 ft 336 kts 288°
2026-04-29 14:53 30.37835 104.12323 24204 ft 332 kts 288°
2026-04-29 14:53 30.38508 104.09776 23772 ft 330 kts 288°
2026-04-29 14:54 30.39177 104.07239 23291 ft 329 kts 288°
2026-04-29 14:54 30.39853 104.04675 22796 ft 328 kts 288°
2026-04-29 14:54 30.40519 104.02147 22306 ft 328 kts 288°
2026-04-29 14:54 30.41185 103.99616 21796 ft 328 kts 288°
2026-04-29 14:55 30.41843 103.97102 21219 ft 327 kts 288°
2026-04-29 14:55 30.42503 103.94579 20682 ft 319 kts 288°
2026-04-29 14:55 30.43138 103.92150 20200 ft 311 kts 288°
2026-04-29 14:55 30.43786 103.89773 19739 ft 304 kts 289°
2026-04-29 14:56 30.44418 103.87437 19332 ft 300 kts 288°
2026-04-29 14:56 30.44951 103.85330 19241 ft 290 kts 290°
2026-04-29 14:56 30.45559 103.83047 19379 ft 298 kts 288°
2026-04-29 14:56 30.46021 103.80712 19506 ft 298 kts 278°
2026-04-29 14:57 30.45822 103.78280 19488 ft 307 kts 255°
2026-04-29 14:57 30.45080 103.75909 0 ft 380 kts 250°
2026-04-29 14:57 30.44417 103.73845 9619 ft 268 kts 246°
2026-04-29 14:57 30.43641 103.72011 2858 ft 297 kts 245°
2026-04-29 14:58 30.42764 103.69823 1587 ft 272 kts 233°